Year,Month,Day,Hour,Minute,Value (Times are PST for insolation in W/m^2)
2016,08,01,09,18,454.00
2016,08,01,09,19,454.00
2016,08,01,09,20,456.50
2016,08,01,09,21,458.70
2016,08,01,09,22,461.70
2016,08,01,09,23,463.90
2016,08,01,09,24,466.00
2016,08,01,09,25,466.50
2016,08,01,09,26,472.00
2016,08,01,09,27,477.50
2016,08,01,09,28,475.20
2016,08,01,09,29,477.00
2016,08,01,09,30,480.90
2016,08,01,09,31,483.00
2016,08,01,09,32,483.80
2016,08,01,09,33,485.00
2016,08,01,09,34,487.40
2016,08,01,09,35,491.00
2016,08,01,09,36,493.10
2016,08,01,09,37,495.80
2016,08,01,09,38,498.20
2016,08,01,09,39,501.70
2016,08,01,09,40,503.70
2016,08,01,09,41,504.00
2016,08,01,09,42,507.20
2016,08,01,09,43,509.70
2016,08,01,09,44,512.70
2016,08,01,09,45,514.80
2016,08,01,09,46,515.00
2016,08,01,09,47,519.10
2016,08,01,09,48,522.20
2016,08,01,09,49,524.30
2016,08,01,09,50,526.60
2016,08,01,09,51,529.80
2016,08,01,09,52,534.20
2016,08,01,09,53,537.40
2016,08,01,09,54,536.70
2016,08,01,09,55,538.80
2016,08,01,09,56,540.40
2016,08,01,09,57,542.90
2016,08,01,09,58,546.00
2016,08,01,09,59,547.60
2016,08,01,10,00,550.40
2016,08,01,10,01,553.20
2016,08,01,10,02,554.70
2016,08,01,10,03,556.40
2016,08,01,10,04,560.00
2016,08,01,10,05,562.60
2016,08,01,10,06,563.80
2016,08,01,10,07,565.70
2016,08,01,10,08,566.00
2016,08,01,10,09,569.80
2016,08,01,10,10,571.20
2016,08,01,10,11,575.20
2016,08,01,10,12,577.10
2016,08,01,10,13,578.30
2016,08,01,10,14,580.40
2016,08,01,10,15,582.70
2016,08,01,10,16,585.60
2016,08,01,10,17,587.70
2016,08,01,10,18,589.80
2016,08,01,10,19,592.30
2016,08,01,10,20,594.00
2016,08,01,10,21,596.10
2016,08,01,10,22,598.50
2016,08,01,10,23,600.10
2016,08,01,10,24,603.50
2016,08,01,10,25,605.70
2016,08,01,10,26,608.90
2016,08,01,10,27,611.50
2016,08,01,10,28,612.80
2016,08,01,10,29,614.70
2016,08,01,10,30,616.70
2016,08,01,10,31,618.90
2016,08,01,10,32,620.90
2016,08,01,10,33,624.10
2016,08,01,10,34,626.30
2016,08,01,10,35,629.30
2016,08,01,10,36,631.40
2016,08,01,10,37,633.50
2016,08,01,10,38,635.80
2016,08,01,10,39,638.00
2016,08,01,10,40,638.70
2016,08,01,10,41,641.10
2016,08,01,10,42,643.90
2016,08,01,10,43,646.00
2016,08,01,10,44,648.00
2016,08,01,10,45,649.50
2016,08,01,10,46,651.10
2016,08,01,10,47,653.20
2016,08,01,10,48,655.30
2016,08,01,10,49,656.70
2016,08,01,10,50,660.00
2016,08,01,10,51,661.00
2016,08,01,10,52,663.50
2016,08,01,10,53,665.80
2016,08,01,10,54,667.80
2016,08,01,10,55,670.90
2016,08,01,10,56,670.10
2016,08,01,10,57,673.40
2016,08,01,10,58,677.00
2016,08,01,10,59,677.40
2016,08,01,11,00,679.00
2016,08,01,11,01,679.80
2016,08,01,11,02,683.10
2016,08,01,11,03,686.00
2016,08,01,11,04,686.40
2016,08,01,11,05,687.00
2016,08,01,11,06,688.00
2016,08,01,11,07,689.00
2016,08,01,11,08,690.00
2016,08,01,11,09,691.00
2016,08,01,11,10,688.50
2016,08,01,11,11,685.00
2016,08,01,11,12,689.00
2016,08,01,11,13,693.30
2016,08,01,11,14,699.60
2016,08,01,11,15,701.00
2016,08,01,11,16,704.40
2016,08,01,11,17,705.00
2016,08,01,11,18,707.90
2016,08,01,11,19,710.00
2016,08,01,11,20,710.00
2016,08,01,11,21,710.00
2016,08,01,11,22,709.60
2016,08,01,11,23,708.80
2016,08,01,11,24,712.00
2016,08,01,11,25,713.40
2016,08,01,11,26,718.70
2016,08,01,11,27,724.70
2016,08,01,11,28,729.90
2016,08,01,11,29,732.00
2016,08,01,11,30,733.00
2016,08,01,11,31,731.90
2016,08,01,11,32,732.20
2016,08,01,11,33,730.50
2016,08,01,11,34,731.70
2016,08,01,11,35,733.00
2016,08,01,11,36,733.00
2016,08,01,11,37,737.00
2016,08,01,11,38,738.00
2016,08,01,11,39,738.00
2016,08,01,11,40,738.00
2016,08,01,11,41,743.70
2016,08,01,11,42,745.20
2016,08,01,11,43,749.20
2016,08,01,11,44,751.40
2016,08,01,11,45,754.80
2016,08,01,11,46,758.70
2016,08,01,11,47,763.80
2016,08,01,11,48,773.40
2016,08,01,11,49,780.70
2016,08,01,11,50,790.70
2016,08,01,11,51,789.40
2016,08,01,11,52,777.20
2016,08,01,11,53,772.00
2016,08,01,11,54,657.60
2016,08,01,11,55,557.10
2016,08,01,11,56,573.70
2016,08,01,11,57,591.70
2016,08,01,11,58,547.60
2016,08,01,11,59,558.70
2016,08,01,12,00,568.00
2016,08,01,12,01,530.60
2016,08,01,12,02,576.30
2016,08,01,12,03,585.00
2016,08,01,12,04,585.00
2016,08,01,12,05,760.00
2016,08,01,12,06,781.00
2016,08,01,12,07,787.40
2016,08,01,12,08,769.40
2016,08,01,12,09,779.00
2016,08,01,12,10,760.70
2016,08,01,12,11,765.10
2016,08,01,12,12,757.70
2016,08,01,12,13,748.90
2016,08,01,12,14,762.70
2016,08,01,12,15,775.10
2016,08,01,12,16,775.10
2016,08,01,12,17,758.80
2016,08,01,12,18,744.00
2016,08,01,12,19,682.70
2016,08,01,12,20,645.00
2016,08,01,12,21,642.90
2016,08,01,12,22,592.50
2016,08,01,12,23,577.00
2016,08,01,12,24,577.00
2016,08,01,12,25,720.10
2016,08,01,12,26,809.10
2016,08,01,12,27,840.80
2016,08,01,12,28,837.90
2016,08,01,12,29,798.40
2016,08,01,12,30,820.70
2016,08,01,12,31,818.40
2016,08,01,12,32,812.20
2016,08,01,12,33,796.50
2016,08,01,12,34,784.00
2016,08,01,12,35,779.00
2016,08,01,12,36,631.60
2016,08,01,12,37,398.00
2016,08,01,12,38,410.30
2016,08,01,12,39,410.50
2016,08,01,12,40,408.10
2016,08,01,12,41,414.00
2016,08,01,12,42,411.40
2016,08,01,12,43,396.00
2016,08,01,12,44,402.90
2016,08,01,12,45,398.90
2016,08,01,12,46,418.70
2016,08,01,12,47,424.00
2016,08,01,12,48,724.90
2016,08,01,12,49,797.60
2016,08,01,12,50,786.70
2016,08,01,12,51,759.80
2016,08,01,12,52,774.00
2016,08,01,12,53,761.40
2016,08,01,12,54,740.00
2016,08,01,12,55,736.20
2016,08,01,12,56,714.60
2016,08,01,12,57,690.00
2016,08,01,12,58,684.30
2016,08,01,12,59,696.80
2016,08,01,13,00,709.00
2016,08,01,13,01,723.70
2016,08,01,13,02,719.00
2016,08,01,13,03,724.30
2016,08,01,13,04,729.70
2016,08,01,13,05,740.00
2016,08,01,13,06,754.30
2016,08,01,13,07,769.60
2016,08,01,13,08,787.20
2016,08,01,13,09,799.90
2016,08,01,13,10,842.00
2016,08,01,13,11,844.70
2016,08,01,13,12,806.90
2016,08,01,13,13,767.80
2016,08,01,13,14,791.00
2016,08,01,13,15,791.00
2016,08,01,13,16,792.30
2016,08,01,13,17,794.90
2016,08,01,13,18,772.80
2016,08,01,13,19,774.90
2016,08,01,13,20,772.90
2016,08,01,13,21,723.30
2016,08,01,13,22,673.90
2016,08,01,13,23,665.70
2016,08,01,13,24,673.70
2016,08,01,13,25,712.50
2016,08,01,13,26,748.70
2016,08,01,13,27,774.30
2016,08,01,13,28,789.80
2016,08,01,13,29,742.30
2016,08,01,13,30,687.60
2016,08,01,13,31,664.30
2016,08,01,13,32,661.00
2016,08,01,13,33,661.00
2016,08,01,13,34,510.10
2016,08,01,13,35,483.20
2016,08,01,13,36,522.00
2016,08,01,13,37,533.60
2016,08,01,13,38,586.00
2016,08,01,13,39,599.30
2016,08,01,13,40,620.90
2016,08,01,13,41,630.40
2016,08,01,13,42,634.30
2016,08,01,13,43,627.00
2016,08,01,13,44,622.00
2016,08,01,13,45,643.70
2016,08,01,13,46,683.30
2016,08,01,13,47,730.90
2016,08,01,13,48,756.60
2016,08,01,13,49,741.30
2016,08,01,13,50,724.60
2016,08,01,13,51,735.40
2016,08,01,13,52,781.00
2016,08,01,13,53,758.90
2016,08,01,13,54,771.40
2016,08,01,13,55,748.00
2016,08,01,13,56,761.30
2016,08,01,13,57,824.50
2016,08,01,13,58,784.00
2016,08,01,13,59,713.30
2016,08,01,14,00,654.20
2016,08,01,14,01,739.70
2016,08,01,14,02,754.70
2016,08,01,14,03,735.00
2016,08,01,14,04,692.40
2016,08,01,14,05,726.70
2016,08,01,14,06,716.10
2016,08,01,14,07,658.00
2016,08,01,14,08,600.70
2016,08,01,14,09,612.60
2016,08,01,14,10,640.00
2016,08,01,14,11,718.00
2016,08,01,14,12,767.00
2016,08,01,14,13,759.90
2016,08,01,14,14,792.10
2016,08,01,14,15,829.00
2016,08,01,14,16,831.40
2016,08,01,14,17,828.00
2016,08,01,14,18,760.80
2016,08,01,14,19,756.90
2016,08,01,14,20,798.40
2016,08,01,14,21,817.70
2016,08,01,14,22,814.20
2016,08,01,14,23,774.80
2016,08,01,14,24,728.30
2016,08,01,14,25,713.00
2016,08,01,14,26,773.00
2016,08,01,14,27,774.70
2016,08,01,14,28,786.20
2016,08,01,14,29,801.60
2016,08,01,14,30,791.30
2016,08,01,14,31,789.90
2016,08,01,14,32,801.10
2016,08,01,14,33,817.20
2016,08,01,14,34,812.00
2016,08,01,14,35,802.00
2016,08,01,14,36,749.40
2016,08,01,14,37,721.80
2016,08,01,14,38,719.70
2016,08,01,14,39,734.30
2016,08,01,14,40,745.80
2016,08,01,14,41,750.20
2016,08,01,14,42,745.90
2016,08,01,14,43,746.70
2016,08,01,14,44,742.50
2016,08,01,14,45,762.00
2016,08,01,14,46,740.20
2016,08,01,14,47,706.80
2016,08,01,14,48,725.60
2016,08,01,14,49,742.00
2016,08,01,14,50,774.00
2016,08,01,14,51,783.00
2016,08,01,14,52,784.30
2016,08,01,14,53,776.70
2016,08,01,14,54,770.00
2016,08,01,14,55,764.90
2016,08,01,14,56,756.10
2016,08,01,14,57,763.40
2016,08,01,14,58,772.00
2016,08,01,14,59,772.00
2016,08,01,15,00,757.80
2016,08,01,15,01,744.30
2016,08,01,15,02,755.60
2016,08,01,15,03,759.50
2016,08,01,15,04,759.00
2016,08,01,15,05,762.40
2016,08,01,15,06,757.00
2016,08,01,15,07,756.00
2016,08,01,15,08,737.90
2016,08,01,15,09,720.90
2016,08,01,15,10,697.60
2016,08,01,15,11,692.90
2016,08,01,15,12,683.90
2016,08,01,15,13,676.40
2016,08,01,15,14,682.00
2016,08,01,15,15,678.90
2016,08,01,15,16,671.70
2016,08,01,15,17,669.60
2016,08,01,15,18,671.70
2016,08,01,15,19,668.70
2016,08,01,15,20,679.70
2016,08,01,15,21,703.00
2016,08,01,15,22,712.10
2016,08,01,15,23,722.10
2016,08,01,15,24,720.70
2016,08,01,15,25,716.10
2016,08,01,15,26,716.50
2016,08,01,15,27,715.40
2016,08,01,15,28,716.70
2016,08,01,15,29,717.00
2016,08,01,15,30,714.30
2016,08,01,15,31,707.30
2016,08,01,15,32,715.50
2016,08,01,15,33,725.80
2016,08,01,15,34,723.30
2016,08,01,15,35,716.60
2016,08,01,15,36,700.70
2016,08,01,15,37,693.20
2016,08,01,15,38,697.10
2016,08,01,15,39,705.70
2016,08,01,15,40,706.20
2016,08,01,15,41,702.00
2016,08,01,15,42,694.70
2016,08,01,15,43,688.40
2016,08,01,15,44,692.60
2016,08,01,15,45,702.00
2016,08,01,15,46,706.20
2016,08,01,15,47,697.70
2016,08,01,15,48,705.10
2016,08,01,15,49,703.10
2016,08,01,15,50,706.70
2016,08,01,15,51,687.40
2016,08,01,15,52,699.30
2016,08,01,15,53,712.80
2016,08,01,15,54,718.80
2016,08,01,15,55,723.60
2016,08,01,15,56,714.20
2016,08,01,15,57,707.00
2016,08,01,15,58,707.00
2016,08,01,15,59,701.40
2016,08,01,16,00,674.20
2016,08,01,16,01,659.60
2016,08,01,16,02,652.30
2016,08,01,16,03,635.00
2016,08,01,16,04,643.10
2016,08,01,16,05,643.00
2016,08,01,16,06,613.50
2016,08,01,16,07,581.30
2016,08,01,16,08,572.00
2016,08,01,16,09,581.20
2016,08,01,16,10,603.70
2016,08,01,16,11,582.30
2016,08,01,16,12,572.30
2016,08,01,16,13,586.00
2016,08,01,16,14,595.00
2016,08,01,16,15,608.60
2016,08,01,16,16,605.50
2016,08,01,16,17,596.40
2016,08,01,16,18,591.00
2016,08,01,16,19,591.20
2016,08,01,16,20,585.10
2016,08,01,16,21,593.70
2016,08,01,16,22,606.60
2016,08,01,16,23,620.80
2016,08,01,16,24,628.00
2016,08,01,16,25,628.30
2016,08,01,16,26,616.30
2016,08,01,16,27,621.00
2016,08,01,16,28,640.60
2016,08,01,16,29,645.30
2016,08,01,16,30,630.60
2016,08,01,16,31,616.60
2016,08,01,16,32,628.50
2016,08,01,16,33,633.30
2016,08,01,16,34,644.60
2016,08,01,16,35,655.30
2016,08,01,16,36,643.20
2016,08,01,16,37,640.00
2016,08,01,16,38,631.90
2016,08,01,16,39,618.30
2016,08,01,16,40,623.70
2016,08,01,16,41,541.50
2016,08,01,16,42,512.50
2016,08,01,16,43,520.30
2016,08,01,16,44,552.00
2016,08,01,16,45,595.10
2016,08,01,16,46,551.80
2016,08,01,16,47,482.40
2016,08,01,16,48,434.00
2016,08,01,16,49,424.50
2016,08,01,16,50,483.60
2016,08,01,16,51,543.40
2016,08,01,16,52,544.40
2016,08,01,16,53,500.00
2016,08,01,16,54,423.90
2016,08,01,16,55,367.20
2016,08,01,16,56,342.30
2016,08,01,16,57,346.00
2016,08,01,16,58,346.20
2016,08,01,16,59,345.00
2016,08,01,17,00,347.60
2016,08,01,17,01,333.50
2016,08,01,17,02,344.40
2016,08,01,17,03,343.10
2016,08,01,17,04,342.00
2016,08,01,17,05,356.90
2016,08,01,17,06,308.00
2016,08,01,17,07,309.90
2016,08,01,17,08,319.00
2016,08,01,17,09,321.10
2016,08,01,17,10,318.40
2016,08,01,17,11,330.00
2016,08,01,17,12,343.20
2016,08,01,17,13,360.10
2016,08,01,17,14,373.70
2016,08,01,17,15,381.00
2016,08,01,17,16,461.10
2016,08,01,17,17,545.40
2016,08,01,17,18,567.00
2016,08,01,17,19,579.70
2016,08,01,17,20,623.40
2016,08,01,17,21,631.60
2016,08,01,17,22,633.80
2016,08,01,17,23,629.30
2016,08,01,17,24,619.90
2016,08,01,17,25,606.30
2016,08,01,17,26,592.60
2016,08,01,17,27,577.50
2016,08,01,17,28,566.80
2016,08,01,17,29,553.30
2016,08,01,17,30,540.30
2016,08,01,17,31,527.00
2016,08,01,17,32,516.90
2016,08,01,17,33,508.00
2016,08,01,17,34,501.00
2016,08,01,17,35,494.30
2016,08,01,17,36,487.90
2016,08,01,17,37,481.70
2016,08,01,17,38,476.40
2016,08,01,17,39,473.90
2016,08,01,17,40,469.00
2016,08,01,17,41,461.70
2016,08,01,17,42,454.30
2016,08,01,17,43,447.70
2016,08,01,17,44,443.70
2016,08,01,17,45,439.80
2016,08,01,17,46,434.90
2016,08,01,17,47,429.50
2016,08,01,17,48,425.40
2016,08,01,17,49,424.00
2016,08,01,17,50,421.90
2016,08,01,17,51,419.70
2016,08,01,17,52,416.40
2016,08,01,17,53,412.40
2016,08,01,17,54,408.80
2016,08,01,17,55,402.80
2016,08,01,17,56,398.10
2016,08,01,17,57,394.00
2016,08,01,17,58,388.90
2016,08,01,17,59,385.30
2016,08,01,18,00,382.00
2016,08,01,18,01,379.50
2016,08,01,18,02,375.90
2016,08,01,18,03,373.40
2016,08,01,18,04,370.50
2016,08,01,18,05,367.70
2016,08,01,18,06,364.90
2016,08,01,18,07,360.80
2016,08,01,18,08,360.00
2016,08,01,18,09,360.00
2016,08,01,18,10,351.80
2016,08,01,18,11,346.20
2016,08,01,18,12,343.10
2016,08,01,18,13,339.00
2016,08,01,18,14,337.80
2016,08,01,18,15,335.70
2016,08,01,18,16,333.60
2016,08,01,18,17,331.60
2016,08,01,18,18,329.80
2016,08,01,18,19,327.90
2016,08,01,18,20,324.00
2016,08,01,18,21,319.70
2016,08,01,18,22,315.60
2016,08,01,18,23,313.10
2016,08,01,18,24,309.40
2016,08,01,18,25,305.80
2016,08,01,18,26,301.10
2016,08,01,18,27,297.80
2016,08,01,18,28,295.70
2016,08,01,18,29,294.30
2016,08,01,18,30,294.00
2016,08,01,18,31,292.40
2016,08,01,18,32,290.30
2016,08,01,18,33,287.40
2016,08,01,18,34,285.20
2016,08,01,18,35,283.10
2016,08,01,18,36,280.90
2016,08,01,18,37,279.00
2016,08,01,18,38,278.60
2016,08,01,18,39,275.60
2016,08,01,18,40,273.60
2016,08,01,18,41,271.70
2016,08,01,18,42,269.80
2016,08,01,18,43,266.00
2016,08,01,18,44,263.20
2016,08,01,18,45,260.30
2016,08,01,18,46,256.60
2016,08,01,18,47,252.90
2016,08,01,18,48,250.40
2016,08,01,18,49,248.90
2016,08,01,18,50,245.50
2016,08,01,18,51,243.30
2016,08,01,18,52,240.10
2016,08,01,18,53,236.70
2016,08,01,18,54,234.40
2016,08,01,18,55,232.30
2016,08,01,18,56,229.40
2016,08,01,18,57,225.40
2016,08,01,18,58,221.20
2016,08,01,18,59,219.80
2016,08,01,19,00,215.80
2016,08,01,19,01,213.90
2016,08,01,19,02,212.60
2016,08,01,19,03,210.60
2016,08,01,19,04,208.50
2016,08,01,19,05,206.10
2016,08,01,19,06,203.30
2016,08,01,19,07,200.90
2016,08,01,19,08,197.30
2016,08,01,19,09,194.00
2016,08,01,19,10,191.40
2016,08,01,19,11,188.90
2016,08,01,19,12,186.30
2016,08,01,19,13,185.00
2016,08,01,19,14,185.00
2016,08,01,19,15,185.00
2016,08,01,19,16,185.00
2016,08,01,19,17,185.00
2016,08,01,19,18,185.00
2016,08,01,19,19,185.00
2016,08,01,19,20,185.00
2016,08,01,19,21,185.00
2016,08,01,19,22,185.00
